Location: Clanezzo
(45.7500°N, 9.6000°E)
Time: 21:37:11
(UTC+00:00)

UKube-1 - Visible Passes

Search period start: 27 June 2022 00:00
Search period end: 07 July 2022 00:00
Orbit: 610 x 614 km, 98.4° (Epoch: 27 June)

Date Brightness Start Highest point End Pass type
(mag) Time Alt. Az. Time Alt. Az. Time Alt. Az.
27 Jun ? 21:10:16 10° NNE 21:14:31 58° E 21:16:59 24° S visible
27 Jun ? 22:47:18 10° NNW 22:49:58 16° WNW 22:52:37 10° W visible
28 Jun ? 21:25:02 10° NNE 21:29:22 83° ESE 21:31:58 24° S visible
28 Jun ? 23:02:57 10° NW 23:04:37 12° WNW 23:06:17 10° W visible
29 Jun ? 20:06:04 10° ENE 20:07:48 12° E 20:09:32 10° ESE visible
29 Jun ? 21:39:53 10° N 21:44:10 70° WNW 21:46:56 21° SSW visible
30 Jun ? 20:19:55 10° NE 20:22:47 17° E 20:24:54 13° SE visible
30 Jun ? 21:54:47 10° N 21:58:57 49° WNW 22:01:54 18° SW visible
01 Jul ? 20:34:13 10° NE 20:37:44 24° E 20:39:51 17° SE visible
01 Jul ? 22:09:46 10° N 22:13:42 35° WNW 22:16:51 14° SW visible
02 Jul ? 20:48:44 10° NNE 20:52:39 33° E 20:54:48 21° SSE visible
02 Jul ? 22:24:50 10° N 22:28:24 26° WNW 22:31:48 11° WSW visible
03 Jul ? 21:03:21 10° NNE 21:07:31 47° E 21:09:45 24° SSE visible
03 Jul ? 22:40:02 10° NNW 22:43:05 19° WNW 22:46:08 10° WSW visible
04 Jul ? 21:18:03 10° NNE 21:22:21 67° ESE 21:24:42 26° S visible
04 Jul ? 22:55:25 10° NNW 22:57:44 14° WNW 23:00:02 10° W visible
05 Jul ? 21:32:50 10° NNE 21:37:10 86° WNW 21:39:38 25° SSW visible
05 Jul ? 23:11:27 10° NW 23:12:20 11° WNW 23:13:14 10° WNW visible
06 Jul ? 20:13:22 10° ENE 20:15:39 14° E 20:17:34 11° ESE visible
06 Jul ? 21:47:41 10° N 21:51:57 60° WNW 21:54:34 22° SW visible
